TimeCDT,TemperatureF,Dew PointF,Humidity,Sea Level PressureIn,VisibilityMPH,Wind Direction,Wind SpeedMPH,Gust SpeedMPH,PrecipitationIn,Events,Conditions,WindDirDegrees,DateUTC
12:53 AM,46.9,37.9,71,30.14,10.0,SW,10.4,-,N/A,,Clear,220,2013-10-22 05:53:00
1:53 AM,46.0,37.9,73,30.14,10.0,SW,12.7,-,N/A,,Clear,230,2013-10-22 06:53:00
2:53 AM,46.9,37.0,68,30.13,10.0,WSW,12.7,-,N/A,,Clear,240,2013-10-22 07:53:00
3:53 AM,46.9,37.0,68,30.12,10.0,WSW,13.8,-,N/A,,Clear,240,2013-10-22 08:53:00
4:53 AM,46.9,36.0,66,30.11,10.0,WSW,12.7,-,N/A,,Clear,240,2013-10-22 09:53:00
5:53 AM,46.9,36.0,66,30.11,10.0,WSW,13.8,-,N/A,,Clear,240,2013-10-22 10:53:00
6:53 AM,46.0,36.0,68,30.12,10.0,SW,13.8,-,N/A,,Clear,230,2013-10-22 11:53:00
7:53 AM,46.9,36.0,66,30.13,10.0,WSW,10.4,-,N/A,,Clear,250,2013-10-22 12:53:00
8:53 AM,52.0,37.0,57,30.12,10.0,WSW,16.1,-,N/A,,Clear,250,2013-10-22 13:53:00
9:53 AM,60.1,39.0,46,30.13,10.0,West,10.4,-,N/A,,Clear,280,2013-10-22 14:53:00
10:53 AM,68.0,39.0,35,30.11,10.0,West,17.3,-,N/A,,Clear,270,2013-10-22 15:53:00
11:53 AM,73.0,39.9,30,30.10,5.0,WNW,19.6,26.5,N/A,,Haze,290,2013-10-22 16:53:00
12:53 PM,73.9,39.0,28,30.09,10.0,NW,18.4,-,N/A,,Clear,310,2013-10-22 17:53:00
1:53 PM,75.0,37.9,26,30.07,10.0,NW,15.0,-,N/A,,Clear,320,2013-10-22 18:53:00
2:53 PM,77.0,36.0,23,30.05,10.0,NNW,12.7,-,N/A,,Clear,330,2013-10-22 19:53:00
3:53 PM,77.0,32.0,19,30.05,10.0,NW,13.8,-,N/A,,Clear,320,2013-10-22 20:53:00
4:53 PM,77.0,30.0,18,30.04,10.0,NW,15.0,-,N/A,,Clear,310,2013-10-22 21:53:00
5:53 PM,75.0,32.0,21,30.04,10.0,NNW,10.4,-,N/A,,Clear,330,2013-10-22 22:53:00
6:53 PM,66.0,37.9,36,30.06,10.0,North,8.1,-,N/A,,Clear,350,2013-10-22 23:53:00
7:53 PM,60.1,39.9,47,30.08,10.0,North,6.9,-,N/A,,Clear,360,2013-10-23 00:53:00
8:53 PM,64.0,37.9,38,30.08,10.0,NNW,3.5,-,N/A,,Clear,340,2013-10-23 01:53:00
9:53 PM,54.0,44.1,69,30.09,6.0,Calm,Calm,-,N/A,,Haze,0,2013-10-23 02:53:00
10:38 PM,53.6,42.8,67,30.12,2.0,Calm,Calm,-,N/A,,Haze,0,2013-10-23 03:38:00
10:53 PM,55.0,42.1,62,30.09,2.5,Calm,Calm,-,N/A,,Haze,0,2013-10-23 03:53:00
11:04 PM,55.4,41.0,58,30.12,7.0,Calm,Calm,-,N/A,,Clear,0,2013-10-23 04:04:00
11:53 PM,55.0,44.1,67,30.09,10.0,Calm,Calm,-,N/A,,Clear,0,2013-10-23 04:53:00